#timestamp,LO_Frequency,Hit,StdDev 
1508904015.3,286046996.6,N
1508904035.1,286046996.7,N
1508904055.9,286046994.9,N
1508904075.7,286046997.8,N
1508904095.5,286046995.5,N
1508904115.4,286046997.2,N
1508904135.2,286046998.0,N
1508904155.0,286046994.8,N
1508904155.9,286046994.8,N
1508904175.8,286046995.7,N
1508904195.6,286046994.1,N
1508904215.4,286046995.7,N
1508904235.3,286046999.6,N
1508904255.1,286047001.1,N
1508904275.8,286046999.4,N
1508904295.7,286046998.1,N
1508904315.5,286047001.6,N
1508904335.3,286047000.0,N
1508904355.2,286046999.4,N
1508904375.9,286046997.2,N
1508904395.7,286047001.1,N
1508904415.6,286046999.6,N
1508904435.4,286046996.1,N
1508904455.2,286046995.8,N
1508904475.1,286046992.9,Y
1508904476.0,286046992.9,P
1508904495.8,286046994.1,N
1508904515.6,286046991.7,P
1508904535.5,286046990.4,Y
1508904555.3,286046997.9,P
1508904575.2,286046994.9,N
1508904595.9,286046997.7,N
1508904615.7,286046995.7,N
1508904635.6,286046991.7,Y
1508904655.4,286046994.6,P
1508904675.2,286046994.8,P
1508904695.1,286046992.7,P
1508904696.0,286046992.7,Y
1508904715.8,286046999.6,P
1508904735.6,286047000.9,N
1508904755.5,286047001.5,N
1508904775.3,286047004.1,N
1508904795.1,286047004.8,N
1508904815.9,286047007.1,N
1508904835.7,286047007.5,N
1508904855.6,286047008.3,N
1508904875.4,286047006.4,N
1508904895.2,286047007.6,N
1508904915.0,286047007.3,N
1508904916.0,286047007.3,N
1508904935.8,286047009.2,N
1508904955.6,286047006.4,N
1508904975.5,286047008.4,N
1508904995.3,286047009.0,N
1508905015.1,286047010.2,N
1508905035.9,286047009.2,N
1508905055.7,286047008.1,N
1508905075.5,286047009.1,N
1508905095.4,286047007.8,N
1508905115.2,286047007.5,N
1508905135.0,286047005.3,N
1508905135.9,286047005.3,N
1508905155.8,286047004.2,N
1508905175.6,286047001.8,N
1508905195.4,286047004.0,N
1508905215.3,286046999.9,N
1508905235.1,286047000.6,N
1508905236.0,286047000.6,N
1508905255.8,286046999.2,N
1508905275.7,286046995.5,N
1508905295.5,286046990.1,N
1508905315.3,286046998.7,N
1508905335.2,286047001.9,N
1508905355.9,286047003.5,N
1508905375.7,286047005.3,N
1508905395.6,286047006.3,N
1508905415.4,286047012.9,N
1508905435.2,286047012.0,N
1508905455.1,286047009.5,N
1508905456.0,286047009.5,N
1508905475.8,286047008.1,N
1508905495.6,286047011.9,N
1508905515.5,286047013.6,N
1508905535.3,286047015.3,N
1508905555.1,286047014.5,N
1508905575.9,286047020.1,Y
1508905595.7,286047015.6,P
1508905615.5,286047011.8,N
1508905635.4,286047010.9,N
1508905655.2,286047013.6,Y
1508905675.0,286046999.7,P
1508905675.9,286046999.7,N
1508905695.8,286046998.2,N
1508905715.6,286046999.3,N
1508905735.4,286046997.9,N
1508905755.3,286047000.8,N
1508905775.1,286046999.8,N
1508905795.8,286046999.5,N
1508905815.7,286046998.2,N
1508905835.5,286046999.3,N
1508905855.3,286046995.1,N
1508905875.2,286046996.0,N
1508905895.0,286046996.2,N
1508905895.9,286046996.2,N
1508905915.8,286046996.6,N
1508905935.6,286047001.0,N
1508905955.4,286047001.9,N
1508905975.3,286047000.9,N
1508905995.1,286047002.4,N
1508905996.0,286047002.4,N
1508906015.8,286047000.8,N
1508906035.7,286046998.1,N
1508906055.5,286046996.5,N
1508906075.3,286046997.2,N
1508906095.2,286046994.9,N
1508906115.9,286046997.7,N
1508906135.7,286046995.1,N
1508906155.6,286046991.8,N
1508906175.4,286046990.2,N
1508906195.2,286046990.5,N
1508906215.1,286046987.1,Y
1508906216.0,286046987.1,P
1508906235.8,286046987.4,N
1508906255.6,286046990.6,N
1508906275.5,286046991.2,N
1508906295.3,286046988.5,N
1508906315.1,286046993.0,N
1508906335.9,286046994.2,N
1508906355.7,286046990.5,N
1508906375.6,286046988.7,Y
1508906395.4,286046997.4,P
1508906415.2,286046997.1,N
1508906435.1,286046998.6,N
1508906436.0,286046998.6,N
1508906455.8,286046998.9,N
1508906475.6,286046998.9,N
1508906495.5,286046999.3,N
1508906515.3,286047000.9,N
1508906535.1,286047000.6,N
1508906555.9,286047000.4,N
1508906575.7,286046999.2,N
1508906595.5,286046998.4,N
1508906615.4,286046997.1,N
1508906635.2,286046998.4,N
1508906655.0,286046997.3,N
1508906655.9,286046997.3,N
1508906675.8,286046997.8,N
1508906695.6,286046994.5,N
1508906715.4,286046995.5,N
1508906735.3,286046994.6,N
1508906755.1,286046993.9,N
1508906756.0,286046993.9,N
1508906775.8,286046999.6,N
1508906795.7,286046996.5,N
1508906815.5,286046994.0,N
1508906835.3,286046995.3,N
1508906855.2,286046992.0,Y
1508906875.9,286046998.3,P
1508906895.7,286046997.7,P
1508906915.6,286046995.6,P
1508906935.4,286046996.8,Y
1508906955.2,286046997.0,P
1508906975.1,286046999.1,P
1508906976.0,286046999.1,N
1508906995.8,286046997.4,N
1508907015.7,286046994.2,Y
1508907035.5,286046997.5,P
1508907055.3,286046998.9,P
1508907075.2,286046995.1,P
1508907095.9,286046995.1,Y
1508907115.7,286046997.8,P
1508907135.6,286047002.8,P
1508907155.4,286047004.4,N
1508907175.3,286047004.3,N
1508907195.1,286047000.8,N
1508907196.0,286047000.8,N
1508907215.8,286047000.7,N
1508907235.7,286046993.3,N
1508907255.5,286046997.1,N
1508907275.3,286047003.9,N
1508907295.2,286047004.6,N
1508907315.9,286047007.1,N
1508907335.7,286047005.2,N
1508907355.6,286047004.9,N
1508907375.4,286047006.4,N
1508907395.2,286047010.1,N
1508907415.1,286047009.4,N
1508907416.0,286047009.4,N
1508907435.8,286047010.9,N
1508907455.6,286047015.4,Y
1508907475.5,286047010.6,P
1508907495.3,286047006.6,N
1508907515.1,286047006.1,N
1508907535.9,286047005.2,N
1508907555.7,286047007.6,Y
1508907575.6,286046999.3,P
1508907595.4,286047000.1,N
